Weather History for Flag Island, MN

Change the Weather History Date:

Monday, February 18, 2013

  Actual Average Record
Temperature  
Mean Temperature 13 °F -  
Max Temperature 26 °F 17 °F 39 °F (2014)
Min Temperature 0 °F 1 °F -20 °F (2006)
Degree Days  
Heating Degree Days 52    
Moisture  
Dew Point 8 °F    
Average Humidity 84    
Maximum Humidity 100    
Minimum Humidity 72    
Precipitation  
Precipitation 0.00 in - - ()
Sea Level Pressure  
Sea Level Pressure 29.72 in    
Wind  
Wind Speed 16 mph (North)    
Max Wind Speed 30 mph    
Max Gust Speed 36 mph    
Visibility 3 miles    
Events Snow    
Averages and records for this station are not official NWS values.
T = Trace of Precipitation, MM = Missing Value Source: NWS Daily Summary

Daily Weather History Graph

Daily Weather History Graph

Search for Another Location

Airport:

Trip Planner

Search our weather history database for the weather conditions in past years. The results will help you decide how hot, cold, wet, or windy it might be!

Date:

Astronomy

Feb. 18, 2013 Rise Set
Actual Time 7:22 AM CST 5:45 PM CST
Civil Twilight 6:50 AM CST 6:17 PM CST
Nautical Twilight 6:12 AM CST 6:54 PM CST
Astronomical Twilight 5:36 AM CST 7:31 PM CST
Moon 11:15 AM CST (2/18) 2:18 AM CST (2/18)
Length of Visible Light 11h 27m
Length of Day
10h 22m
First Quarter, 58% of the Moon is Illuminated
Feb 18
First Quarter
Feb 25
Full
Mar 4
Last Quarter
Mar 11
New
Mar 19
First Quarter

Hourly Weather History & Observations

Time (CST) Temp. Windchill Dew Point Humidity Pressure Visibility Wind Dir Wind Speed Gust Speed Precip Events Conditions
12:13 AM 26.6 °F 16.8 °F 24.8 °F 93% 29.50 in 1.5 mi South 10.4 mph - N/A Snow Light Snow
12:33 AM 26.6 °F 16.8 °F 26.6 °F 100% 29.50 in 0.8 mi South 10.4 mph - N/A Snow Snow
12:53 AM 26.6 °F 17.5 °F 26.6 °F 100% 29.50 in 1.5 mi South 9.2 mph - N/A Snow Light Snow
1:13 AM 26.6 °F 17.5 °F 26.6 °F 100% 29.49 in 0.5 mi SSE 9.2 mph - N/A Snow Snow
1:34 AM 26.6 °F 17.5 °F 24.8 °F 93% 29.49 in 0.5 mi SSE 9.2 mph - N/A Snow Heavy Snow
1:53 AM 26.6 °F 19.1 °F 24.8 °F 93% 29.49 in 1.0 mi SSE 6.9 mph - N/A Snow Snow
2:13 AM 26.6 °F 21.2 °F 24.8 °F 93% 29.49 in 0.8 mi SSE 4.6 mph - N/A Snow Snow
2:33 AM 26.6 °F 21.2 °F 24.8 °F 93% 29.49 in 1.0 mi SSE 4.6 mph - N/A Snow Light Snow
2:53 AM 26.6 °F 21.2 °F 24.8 °F 93% 29.49 in 2.5 mi SSE 4.6 mph - N/A Snow Light Snow
3:13 AM 26.6 °F - 24.8 °F 93% 29.48 in 2.5 mi Calm Calm - N/A Snow Light Snow
3:33 AM 26.6 °F - 26.6 °F 100% 29.48 in 3.0 mi Calm Calm - N/A Snow Light Snow
3:53 AM 26.6 °F - 24.8 °F 93% 29.49 in 4.0 mi Calm Calm - N/A   Overcast
4:13 AM 26.6 °F 17.5 °F 24.8 °F 93% 29.49 in 4.0 mi NNE 9.2 mph - N/A   Overcast
4:33 AM 24.8 °F 11.5 °F 23.0 °F 93% 29.50 in 7.0 mi North 17.3 mph - N/A   Overcast
4:53 AM 23.0 °F 9.2 °F 21.2 °F 93% 29.50 in 10.0 mi North 17.3 mph - N/A Snow Light Snow
5:13 AM 23.0 °F 9.2 °F 19.4 °F 86% 29.51 in 3.0 mi North 17.3 mph - N/A Snow Light Snow
5:33 AM 21.2 °F 6.4 °F 19.4 °F 93% 29.52 in 1.8 mi North 18.4 mph 24.2 mph N/A Snow Light Snow
5:53 AM 21.2 °F 5.2 °F 19.4 °F 93% 29.53 in 1.2 mi North 21.9 mph - N/A Snow Light Snow
6:13 AM 21.2 °F 4.9 °F 17.6 °F 86% 29.53 in 1.5 mi North 23.0 mph - N/A Snow Light Snow
6:33 AM 19.4 °F 2.8 °F 17.6 °F 93% 29.54 in 1.2 mi North 21.9 mph - N/A Snow Light Snow
6:53 AM 19.4 °F 3.6 °F 17.6 °F 93% 29.55 in 1.2 mi North 19.6 mph 26.5 mph N/A Snow Light Snow
7:14 AM 19.4 °F 4.1 °F 17.6 °F 93% 29.57 in 0.8 mi North 18.4 mph 26.5 mph N/A Snow Snow
7:33 AM 19.4 °F 3.2 °F 15.8 °F 86% 29.57 in 0.5 mi North 20.7 mph 24.2 mph N/A Snow Snow
8:13 AM 15.8 °F -2.3 °F 12.2 °F 86% 29.60 in 0.5 mi North 23.0 mph 32.2 mph N/A Snow Light Snow
8:33 AM 14.0 °F -5.5 °F 10.4 °F 86% 29.61 in 0.5 mi North 25.3 mph 33.4 mph N/A Snow Light Snow
8:53 AM 12.2 °F -7.1 °F 10.4 °F 92% 29.63 in 0.5 mi North 23.0 mph 28.8 mph N/A Snow Light Snow
9:13 AM 12.2 °F -6.3 °F 8.6 °F 85% 29.64 in 0.8 mi North 20.7 mph 33.4 mph N/A Snow Light Snow
9:33 AM 10.4 °F -11.0 °F 6.8 °F 85% 29.65 in 0.8 mi North 27.6 mph 34.5 mph N/A Snow Light Snow
9:54 AM 10.4 °F -10.3 °F 6.8 °F 85% 29.66 in 0.8 mi North 25.3 mph 32.2 mph N/A Snow Light Snow
10:13 AM 8.6 °F -11.9 °F 5.0 °F 85% 29.67 in 0.8 mi North 23.0 mph 33.4 mph N/A Snow Light Snow
10:33 AM 8.6 °F -13.1 °F 3.2 °F 79% 29.68 in 0.8 mi North 26.5 mph 34.5 mph N/A Snow Light Snow
10:54 AM 8.6 °F -11.9 °F 3.2 °F 79% 29.69 in 0.8 mi North 23.0 mph 34.5 mph N/A Snow Light Snow
11:13 AM 8.6 °F -14.1 °F 3.2 °F 79% 29.70 in 0.8 mi North 29.9 mph 35.7 mph N/A Snow Light Snow
11:33 AM 8.6 °F -13.4 °F 3.2 °F 79% 29.71 in 0.8 mi North 27.6 mph 32.2 mph N/A Snow Light Snow
11:54 AM 6.8 °F -15.1 °F 3.2 °F 85% 29.72 in 0.8 mi North 25.3 mph 33.4 mph N/A Snow Light Snow
12:13 PM 8.6 °F -12.7 °F 3.2 °F 79% 29.72 in 1.0 mi North 25.3 mph 28.8 mph N/A Snow Light Snow
12:33 PM 6.8 °F -15.1 °F 1.4 °F 79% 29.73 in 0.8 mi North 25.3 mph 32.2 mph N/A Snow Light Snow
12:54 PM 6.8 °F -13.4 °F 3.2 °F 85% 29.74 in 1.0 mi North 20.7 mph 26.5 mph N/A Snow Light Snow
1:13 PM 6.8 °F -13.8 °F 3.2 °F 85% 29.75 in 1.2 mi North 21.9 mph 31.1 mph N/A Snow Light Snow
1:33 PM 6.8 °F -14.3 °F 1.4 °F 79% 29.76 in 1.2 mi North 23.0 mph 31.1 mph N/A Snow Light Snow
1:54 PM 6.8 °F -15.5 °F 1.4 °F 79% 29.77 in 1.8 mi NNW 26.5 mph 31.1 mph N/A Snow Light Snow
2:13 PM 6.8 °F -14.3 °F 1.4 °F 79% 29.78 in 2.5 mi NNW 23.0 mph 26.5 mph N/A   Haze
2:34 PM 6.8 °F -14.3 °F 1.4 °F 79% 29.79 in 2.0 mi NNW 23.0 mph 26.5 mph N/A   Haze
2:53 PM 6.8 °F -15.1 °F 1.4 °F 79% 29.80 in 2.0 mi NNW 25.3 mph - N/A   Haze
3:14 PM 6.8 °F -14.3 °F 1.4 °F 79% 29.81 in 2.5 mi North 23.0 mph 27.6 mph N/A   Haze
3:33 PM 6.8 °F -14.3 °F -0.4 °F 72% 29.82 in 2.0 mi NNW 23.0 mph - N/A   Haze
3:53 PM 6.8 °F -14.7 °F -0.4 °F 72% 29.83 in 2.5 mi North 24.2 mph 29.9 mph N/A   Haze
4:13 PM 5.0 °F -17.5 °F -0.4 °F 78% 29.84 in 2.5 mi North 25.3 mph 34.5 mph N/A   Haze
4:33 PM 6.8 °F -12.9 °F -0.4 °F 72% 29.85 in 3.0 mi North 19.6 mph - N/A   Haze
4:54 PM 5.0 °F -17.1 °F -0.4 °F 78% 29.86 in 3.0 mi North 24.2 mph 31.1 mph N/A   Haze
5:13 PM 5.0 °F -18.3 °F -0.4 °F 78% 29.88 in 3.0 mi North 27.6 mph 34.5 mph N/A   Haze
5:33 PM 3.2 °F -17.1 °F -0.4 °F 85% 29.89 in 2.5 mi North 18.4 mph - N/A   Haze
5:54 PM 3.2 °F -19.9 °F -2.2 °F 78% 29.91 in 2.5 mi North 25.3 mph 32.2 mph N/A   Haze
6:13 PM 3.2 °F -20.3 °F -2.2 °F 78% 29.92 in 4.0 mi North 26.5 mph 29.9 mph N/A   Haze
6:33 PM 3.2 °F -18.1 °F -2.2 °F 78% 29.92 in 7.0 mi North 20.7 mph 28.8 mph N/A   Overcast
6:53 PM 3.2 °F -19.5 °F -2.2 °F 78% 29.93 in 5.0 mi North 24.2 mph 29.9 mph N/A   Haze
7:13 PM 3.2 °F -20.7 °F -2.2 °F 78% 29.94 in 7.0 mi NNW 27.6 mph 32.2 mph N/A   Overcast
7:34 PM 3.2 °F -18.1 °F -2.2 °F 78% 29.95 in 10.0 mi North 20.7 mph 29.9 mph N/A   Overcast
7:53 PM 1.4 °F -20.5 °F -4.0 °F 78% 29.95 in 5.0 mi North 20.7 mph 31.1 mph N/A   Haze
8:13 PM 1.4 °F -21.0 °F -4.0 °F 78% 29.96 in 10.0 mi North 21.9 mph 26.5 mph N/A   Overcast
8:33 PM 1.4 °F -19.4 °F -4.0 °F 78% 29.96 in 10.0 mi North 18.4 mph 26.5 mph N/A   Overcast
8:54 PM 1.4 °F -19.4 °F -4.0 °F 78% 29.97 in 10.0 mi North 18.4 mph 27.6 mph N/A   Overcast
9:13 PM 1.4 °F -21.0 °F -5.8 °F 72% 29.98 in 4.0 mi North 21.9 mph 34.5 mph N/A   Haze
9:54 PM 1.4 °F -20.5 °F -5.8 °F 72% 29.98 in 5.0 mi North 20.7 mph 26.5 mph N/A   Haze
10:13 PM -0.4 °F -23.3 °F -5.8 °F 78% 29.99 in 5.0 mi North 21.9 mph 32.2 mph N/A   Haze
10:33 PM -0.4 °F -24.3 °F -7.6 °F 72% 29.99 in 4.0 mi North 24.2 mph 33.4 mph N/A   Haze
10:54 PM -0.4 °F -23.8 °F -7.6 °F 72% 30.00 in 4.0 mi North 23.0 mph 28.8 mph N/A   Haze
11:13 PM -0.4 °F -22.3 °F -7.6 °F 72% 30.01 in 7.0 mi North 19.6 mph 24.2 mph N/A   Overcast
11:33 PM -0.4 °F -23.8 °F -7.6 °F 72% 30.02 in 7.0 mi North 23.0 mph 28.8 mph N/A   Overcast
11:54 PM -0.4 °F -23.8 °F -7.6 °F 72% 30.04 in 7.0 mi North 23.0 mph - N/A   Overcast